Regional Weather Roundup
Issued by NWS

Home | Current Version | Previous Version | Graphics & Text | Print | Product List | Glossary On
Versions: 1 2 3 4 5 6 7 8 9 10 11 12 13 14 15 16 17 18 19 20 21 22 23 24 25 26 27 28 29 30 31 32 33 34 35 36 37 38 39 40 41 42 43 44 45 46 47 48 49 50
034
ASUS43 KMPX 121801
RWRMN
WEATHER ROUNDUP FOR MINNESOTA
NATIONAL WEATHER SERVICE TWIN CITIES/CHANHASSEN MN
1200 PM CST TUE DEC 12 2017


NOTE: "FAIR" INDICATES FEW OR NO CLOUDS BELOW 12,000 FEET WITH NO
SIGNIFICANT WEATHER AND/OR OBSTRUCTIONS TO VISIBILITY. N/A MEANS
CURRENT SKY AND/OR WEATHER CONDITIONS ARE NOT AVAILABLE.

MNZ060>063-068>070-121900-
   Twin Cities Metro

CITY           SKY/WX    TMP DP  RH WIND       PRES   REMARKS
TWIN CITIES    CLOUDY    15   7  70 CALM      30.13F
6HR MIN TEMP:   6; 6HR MAX TEMP:  15;

ST PAUL        CLOUDY    15   6  67 CALM      30.15F
CRYSTAL        CLOUDY    14   4  64 SE6       30.10F WCI   5
BLAINE         CLOUDY    16   7  67 SW3       30.12F
LAKEVILLE        N/A     16   7  67 CALM      30.13F
EDEN PRAIRIE   CLOUDY    17   8  67 S6        30.11F WCI   9
6HR MIN TEMP:   7; 6HR MAX TEMP:  17;

SOUTH ST PAUL  CLOUDY    16   6  64 CALM      30.13F
LAKE ELMO      CLOUDY    14   5  67 CALM      30.12F
$$
MNZ001>005-007-008-013>017-022>024-027-028-121900-
   Northwest Minnesota

CITY           SKY/WX    TMP DP  RH WIND       PRES   REMARKS
BEMIDJI        LGT SNOW  14  12  90 SE8       29.93F WCI   3
HALLOCK        CLOUDY    23  21  93 S12       29.88F WCI  12
ROSEAU         LGT SNOW  16  10  79 SE6       29.91F WCI   7
WARROAD        LGT SNOW  12   9  85 E6        29.92F WCI   3
THIEF RVR FALL CLOUDY    21  19  93 S12       29.91F WCI   9
CROOKSTON      MOSUNNY   25  21  86 S10       29.92F WCI  15
FOSSTON        CLOUDY    21  18  86 S15       29.90F WCI   8
DETROIT LAKES  PTSUNNY   25  23  93 SW8       29.94F WCI  16
MOORHEAD       CLOUDY    28  25  86 CALM      29.95F
PARK RAPIDS      N/A     16  13  88 MISG      29.95F
MAHNOMEN       CLOUDY    24  21  91 S12       29.91F WCI  13
$$
MNZ006-009>011-018-025>026-121900-
   North Central Minnesota

CITY           SKY/WX    TMP DP  RH WIND       PRES   REMARKS
BAUDETTE       LGT SNOW  11   7  84 SE7       29.93F FOG     WCI   0
FLAG ISLAND    LGT SNOW  10   7  85 S15       29.91F WCI  -6
INTL FALLS     LGT SNOW   7   3  84 SE7       29.98F FOG     WCI  -5
6HR MIN TEMP:  -6; 6HR MAX TEMP:   7; 6HR PCP: TRACE;

WASKISH        CLOUDY    12  10  92 SE7       29.95F WCI   2
LONGVILLE      LGT SNOW  10   9  92 S6        29.99F WCI   1
GRAND RAPIDS   FLURRIES   9   5  84 S8        30.01F WCI  -3
CRANE LAKE     CLOUDY     3   0  85 SW3       30.03F
ORR            CLOUDY     7   1  78 S5        29.97F WCI  -2
COOK           CLOUDY     5   1  85 SE3       30.00F
WALKER         FLURRIES  12   8  84 S6        29.96F WCI   3
$$
MNZ012-019>021-037-121900-
   Northeast Minnesota

CITY           SKY/WX    TMP DP  RH WIND       PRES   REMARKS
DULUTH         CLOUDY     8   2  76 N8        30.00F WCI  -4
6HR MIN TEMP:  -2; 6HR MAX TEMP:   8;

ELY            CLOUDY     3  -2  78 SW5       30.00F WCI  -6
HIBBING        CLOUDY     6   2  83 SE6       30.01F WCI  -4
EVELETH        CLOUDY     5  -2  73 CALM      30.03F
DULUTH HARBOR  PTSUNNY   10   3  72 S8        30.09F WCI  -1
TWO HARBORS    MOSUNNY   12   3  67 NW6       30.01F WCI   3
GRAND MARAIS     N/A     12  -4  48 VRB5      30.05F WCI   4
G MARAIS ARPRT SUNNY      1  -9  60 NW5       29.92F WCI  -8
$$
MNZ029>031-032-039>041-046>048-054>057-064-121900-
   West Central Minnesota

CITY           SKY/WX    TMP DP  RH WIND       PRES   REMARKS
FERGUS FALLS   MOSUNNY   28  25  86 S9        30.00F WCI  20
WHEATON        MOSUNNY   37  28  70 SW13      30.00F
MORRIS         CLOUDY    30  25  80 SW10      30.00F WCI  21
ALEXANDRIA     CLOUDY    22  18  85 SW13      30.00F WCI  10
ELBOW LAKE     PTSUNNY   28  25  86 S10       29.98F WCI  19
WADENA         CLOUDY    19  18  93 S6        29.96F WCI  11
GLENWOOD       CLOUDY    21  18  86 SW9       30.02F WCI  11
APPLETON       CLOUDY    34  27  75 SW9       30.02F WCI  26
BENSON         CLOUDY    28  21  74 SW7       30.04F WCI  21
ORTONVILLE     CLOUDY    34  27  75 SW8       30.00F WCI  27
MADISON        CLOUDY    36  28  75 SW12      30.03F
WILLMAR        PTSUNNY   25  21  86 SW7       30.07F WCI  17
$$
MNZ033>034-036-042>043-049>051-058-059-121900-
   Central Minnesota

CITY           SKY/WX    TMP DP  RH WIND       PRES   REMARKS
ST CLOUD       LGT SNOW  16  11  80 S9        30.06F WCI   4
6HR MIN TEMP:   4; 6HR MAX TEMP:  16; 6HR PCP:  0.01;

SAUK CENTRE    CLOUDY    20  15  81 S10       30.02F WCI   9
PAYNESVILLE    CLOUDY    21  16  80 S8        30.05F WCI  12
AITKIN         LGT SNOW  10   7  85 S3        30.01F
PINE RIVER     CLOUDY    10   7  85 S8        30.02F WCI  -1
BRAINERD       LGT SNOW  13   8  81 S8        30.03F WCI   2
STAPLES        LGT SNOW  16  12  86 S8        29.99F WCI   5
LONG PRAIRIE   CLOUDY    18  14  86 S9        30.02F WCI   6
LITTLE FALLS   LGT SNOW  16  10  79 S7        30.04F WCI   6
LITCHFIELD     CLOUDY    21  16  79 CALM      30.07F
BUFFALO        LGT SNOW  16   9  72 S6        30.09F WCI   8
MAPLE LAKE     CLOUDY    18  12  76 S5        30.07F WCI  11
HUTCHINSON     CLOUDY    21  14  73 S8        30.09F WCI  12
$$
MNZ037-044-045-052-053-121900-
   East Central Minnesota

CITY           SKY/WX    TMP DP  RH WIND       PRES   REMARKS
PRINCETON      LGT SNOW  16   9  73 SE5       30.07F WCI   9
MORA           LGT SNOW  12   5  73 CALM      30.08F
CAMBRIDGE      LGT SNOW  12   3  67 S3        30.09F
RUSH CITY      FLURRIES  11   4  73 S3        30.10F
MOOSE LAKE     FLURRIES  12   3  67 CALM      30.03F
HINCKLEY       FLURRIES  12   5  73 S5        30.08F WCI   4
CLOQUET        CLOUDY     9   1  72 W5        30.02F WCI   0
MCGREGOR       CLOUDY    12   9  85 CALM      30.04F
$$
MNZ071>073-080-081-089-090-097-098-121900-
   Southwest Minnesota

CITY           SKY/WX    TMP DP  RH WIND       PRES   REMARKS
MONTEVIDEO     CLOUDY    30  27  86 W6        30.05F WCI  24
GRANITE FALLS  CLOUDY    33  27  77 SW15      30.10F WCI  23
CANBY          CLOUDY    35  28  76 SW12      30.06F WCI  26
MARSHALL       CLOUDY    30  24  78 W17       30.08F WCI  18
REDWOOD FALLS  PTSUNNY   29  21  72 SW7       30.08F WCI  22
OLIVIA         PTSUNNY   27  21  80 S6        30.07F WCI  20
PIPESTONE      CLOUDY    28  25  86 W12       30.08F WCI  18
WINDOM           N/A     28  14  54 W13       30.09F WCI  18
WORTHINGTON    CLOUDY    26  21  81 SW15      30.10F WCI  14
JACKSON        CLOUDY    28  19  69 MISG      30.10F
TRACY          CLOUDY    31  26  80 W9        30.08F WCI  23
SLAYTON        CLOUDY    26  22  85 SW12      30.11F WCI  15
$$
MNZ065>067-074>077-082>085-091>093-121900-
   South Central Minnesota

CITY           SKY/WX    TMP DP  RH WIND       PRES   REMARKS
MANKATO        CLOUDY    19  11  70 S6        30.12F WCI  11
NEW ULM        CLOUDY    21  12  68 S8        30.11F WCI  12
ST JAMES       CLOUDY    27  19  74 SW5       30.12F WCI  21
FAIRMONT       MOSUNNY   27  19  72 SW10      30.11F WCI  17
GLENCOE        CLOUDY    21  14  76 S5        30.10F WCI  14
FARIBAULT      CLOUDY    18   9  68 S6        30.12F WCI   9
OWATONNA       CLOUDY    18   9  68 SW7       30.11F WCI   8
WASECA         CLOUDY    19  12  73 SW7       30.13F WCI  10
$$
MNZ078>079-086>088-094>096-121900-
   Southeast Minnesota

CITY           SKY/WX    TMP DP  RH WIND       PRES   REMARKS
ROCHESTER      PTSUNNY   14   7  73 W12       30.11F WCI   0
6HR MIN TEMP:   4; 6HR MAX TEMP:  14;

RED WING       CLOUDY    16   1  53 W3        30.13F
STANTON        CLOUDY    18   8  66 SW5       30.12F WCI  11
DODGE CENTER   CLOUDY    16   7  67 SW8       30.11F WCI   5
WINONA           N/A     18   5  57 W7        30.17F WCI   8
PRESTON        MOSUNNY   17   4  57 NW10      30.12F WCI   4
$$
ABBREVIATIONS USED IN REMARKS
   TC - TEMPERATURES IN CELSIUS
  WCI - WIND CHILL INDEX
   HX - HEAT INDEX
  VSB - VISIBILITY
$$




USA.gov is the U.S. government's official web portal to all federal, state and local government web resources and services.